Time,TemperatureF,DewpointF,PressureIn,WindDirection,WindDirectionDegrees,WindSpeedMPH,WindSpeedGustMPH,Humidity,HourlyPrecipIn,Conditions,Clouds,dailyrainin,SoftwareType,DateUTC
2013-11-01 00:23:00,45.0,39.0,29.63,WSW,250,1.0,1.0,80,0.00,,,0.28,,2013-11-01 05:23:00,
2013-11-01 00:53:00,45.0,39.0,29.64,WSW,250,0.0,1.0,80,0.00,,,0.28,,2013-11-01 05:53:00,
2013-11-01 01:21:00,45.0,39.0,29.65,WSW,250,0.0,1.0,80,0.00,,,0.28,,2013-11-01 06:21:00,
2013-11-01 01:52:00,44.0,38.0,29.66,WSW,250,1.0,2.0,80,0.00,,,0.28,,2013-11-01 06:52:00,
2013-11-01 02:21:00,44.0,38.0,29.66,WSW,249,0.0,1.0,80,0.00,,,0.28,,2013-11-01 07:21:00,
2013-11-01 02:52:00,44.0,38.0,29.67,WSW,250,1.0,3.0,80,0.00,,,0.28,,2013-11-01 07:52:00,
2013-11-01 03:21:00,43.0,37.0,29.67,WSW,249,0.0,1.0,80,0.00,,,0.28,,2013-11-01 08:21:00,
2013-11-01 03:52:00,43.0,37.0,29.68,WSW,250,1.0,1.0,80,0.00,,,0.27,,2013-11-01 08:52:00,
2013-11-01 04:21:00,43.0,38.0,29.68,WSW,249,0.0,3.0,81,0.00,,,0.27,,2013-11-01 09:21:00,
2013-11-01 04:53:00,43.0,38.0,29.69,WSW,249,1.0,2.0,81,0.00,,,0.27,,2013-11-01 09:53:00,
2013-11-01 05:23:00,43.0,38.0,29.69,WSW,250,1.0,1.0,82,0.00,,,0.27,,2013-11-01 10:23:00,
2013-11-01 05:53:00,42.0,37.0,29.71,WSW,250,1.0,1.0,82,0.00,,,0.26,,2013-11-01 10:53:00,
2013-11-01 06:22:00,42.0,37.0,29.72,WSW,249,1.0,3.0,83,0.00,,,0.26,,2013-11-01 11:22:00,
2013-11-01 06:52:00,42.0,38.0,29.72,WSW,250,0.0,1.0,84,0.00,,,0.23,,2013-11-01 11:52:00,
2013-11-01 07:22:00,42.0,38.0,29.73,WSW,250,0.0,2.0,84,0.00,,,0.21,,2013-11-01 12:22:00,
2013-11-01 07:52:00,42.0,38.0,29.74,WSW,249,4.0,5.0,84,0.00,,,0.19,,2013-11-01 12:52:00,
2013-11-01 08:22:00,42.0,38.0,29.75,WNW,286,1.0,4.0,84,0.00,,,0.17,,2013-11-01 13:22:00,
2013-11-01 08:52:00,42.0,37.0,29.77,WNW,299,2.0,6.0,83,0.00,,,0.12,,2013-11-01 13:52:00,
2013-11-01 09:21:00,44.0,38.0,29.79,NW,304,3.0,7.0,79,0.00,,,0.05,,2013-11-01 14:21:00,
2013-11-01 09:52:00,46.0,39.0,29.80,WNW,283,4.0,10.0,77,0.00,,,0.04,,2013-11-01 14:52:00,
2013-11-01 10:21:00,47.0,39.0,29.81,West,264,3.0,12.0,75,0.00,,,0.03,,2013-11-01 15:21:00,
2013-11-01 10:54:00,49.0,40.0,29.81,WNW,300,3.0,9.0,72,0.00,,,0.03,,2013-11-01 15:54:00,
2013-11-01 11:23:00,50.0,41.0,29.82,West,261,0.0,8.0,70,0.00,,,0.03,,2013-11-01 16:23:00,
2013-11-01 11:53:00,51.0,40.0,29.82,WNW,297,5.0,11.0,66,0.00,,,0.01,,2013-11-01 16:53:00,
2013-11-01 12:22:00,50.0,40.0,29.83,WNW,301,7.0,11.0,68,0.00,,,0.00,,2013-11-01 17:22:00,
2013-11-01 12:52:00,50.0,40.0,29.83,West,273,5.0,15.0,68,0.00,,,0.00,,2013-11-01 17:52:00,
2013-11-01 13:22:00,51.0,41.0,29.83,WNW,300,8.0,15.0,68,0.00,,,0.00,,2013-11-01 18:22:00,
2013-11-01 13:52:00,52.0,40.0,29.82,WNW,295,8.0,15.0,64,0.00,,,0.00,,2013-11-01 18:52:00,
2013-11-01 14:21:00,52.0,41.0,29.83,West,277,4.0,11.0,65,0.00,,,0.00,,2013-11-01 19:21:00,
2013-11-01 14:52:00,53.0,39.0,29.83,WNW,291,6.0,18.0,60,0.00,,,0.00,,2013-11-01 19:52:00,
2013-11-01 15:22:00,56.0,42.0,29.83,WNW,283,8.0,14.0,59,0.00,,,0.00,,2013-11-01 20:22:00,
2013-11-01 15:52:00,56.0,41.0,29.84,WNW,285,5.0,12.0,58,0.00,,,0.00,,2013-11-01 20:52:00,
2013-11-01 16:21:00,57.0,41.0,29.83,WNW,282,4.0,12.0,56,0.00,,,0.00,,2013-11-01 21:21:00,
2013-11-01 16:55:00,57.0,41.0,29.84,WNW,290,4.0,12.0,54,0.00,,,0.00,,2013-11-01 21:55:00,
2013-11-01 17:24:00,58.0,39.0,29.84,WNW,299,4.0,12.0,50,0.00,,,0.00,,2013-11-01 22:24:00,
2013-11-01 17:53:00,57.0,37.0,29.85,NW,306,3.0,10.0,47,0.00,,,0.00,,2013-11-01 22:53:00,
2013-11-01 18:22:00,56.0,36.0,29.85,NW,310,2.0,7.0,47,0.00,,,0.00,,2013-11-01 23:22:00,
2013-11-01 18:53:00,54.0,37.0,29.86,NW,310,0.0,0.0,52,0.00,,,0.00,,2013-11-01 23:53:00,
2013-11-01 19:22:00,51.0,37.0,29.88,NW,310,3.0,6.0,58,0.00,,,0.00,,2013-11-02 00:22:00,
2013-11-01 19:52:00,49.0,40.0,29.91,WNW,294,1.0,6.0,71,0.00,,,0.00,,2013-11-02 00:52:00,
2013-11-01 20:22:00,49.0,39.0,29.94,WNW,302,5.0,13.0,69,0.00,,,0.00,,2013-11-02 01:22:00,
2013-11-01 20:52:00,49.0,40.0,29.94,WNW,301,3.0,7.0,70,0.00,,,0.00,,2013-11-02 01:52:00,
2013-11-01 21:22:00,48.0,39.0,29.94,WNW,300,2.0,6.0,71,0.00,,,0.00,,2013-11-02 02:22:00,
2013-11-01 21:52:00,46.0,39.0,29.95,WNW,301,0.0,5.0,76,0.00,,,0.00,,2013-11-02 02:52:00,
2013-11-01 22:21:00,46.0,39.0,29.95,WNW,301,3.0,6.0,77,0.00,,,0.00,,2013-11-02 03:21:00,
2013-11-01 22:53:00,46.0,38.0,29.96,WNW,302,4.0,9.0,74,0.00,,,0.00,,2013-11-02 03:53:00,
2013-11-01 23:24:00,47.0,38.0,29.97,WNW,292,7.0,13.0,72,0.00,,,0.00,,2013-11-02 04:24:00,
2013-11-01 23:54:00,46.0,38.0,29.98,WNW,298,7.0,13.0,74,0.00,,,0.00,,2013-11-02 04:54:00,